sat.trackr.live / text

‹ back to catalog

STARLINK-6065

NORAD 56812 · 2023-078AX

PAYLOAD ACTIVE UNKNOWN

§ Identity

Operator
Country
US
Launch date
2023-05-31
Launch site
AFWTR
Launch vehicle
Mass (kg)
RCS (m²)

Purposes: comms

External: N2YO · Heavens-Above · Gunter

§ Orbital elements

Epoch: 2026-09-20T22:00:03.000096Z

Period
95.54 min
Inclination
69.9997°
Eccentricity
0.0004558
Mean motion
15.07146559 rev/d
Perigee alt
541.8 km
Apogee alt
548.1 km
Semi-major
6,923.1 km
B*
3.0352e-4
RAAN
191.9857°
Arg perigee
292.6140°
Mean anomaly
33.5379°
Rev number
571

§ Raw data

STARLINK-60651 56812U 23078AX  26263.91670139  .00004475  00000+0  30352-3 0  99922 56812  69.9997 191.9857 0004558 292.6140  33.5379 15.07146559  5715

JSON: /api/v1/satellites/56812 · /tle

For live sub-satellite position, see the globe view (requires WebGL).

§ Visibility from observer

Set your observer location to see the next 7 days of passes ≥ 10°. The values pass through the URL so the page stays shareable.

No JS? Fill the form by hand. The geolocation button needs JavaScript.